DELTA 1 DEB, 21355

Orbit data source: Space-Track

DELTA 1 DEB, 21355 is space debris in SSO originally from a launch on Thu, 12 Jun 1975 UTC launched from the Air Force Western Test Range (AFWTR). Debris objects in space refer to the collection of defunct objects orbiting the Earth. Examples of debris include non-operational satellites, rocket bodies, and fragments generated from explosions, collisions, or faulty payload assembly.

Loading next visibility...
Identifier
21355, 1975-052BZ
Orbit
SSO
Country
Flag of USUS
Related business
Manufacturer
Unknown
Mission
Spacecraft
Bus & Motor
Unknown
Mass
Unknown
Launch date (UTC)
1975-06-12 (50 years ago)
Launch vehicle
Unknown
Launch site
Air Force Western Test Range (AFWTR)
Object type
Payload
Rocket body
Debris
Shape & HBR
Unknown shape, 0.1 m
Radar Cross Section
Small (<0.1 m²)

Expand to show TLE details & history
Last TLE update: 1 day ago

TLE from 1 day ago
0 DELTA 1 DEB
1 21355U 75052BZ  25291.48603191  .00000015  00000-0  13949-3 0  9991
2 21355  99.6137 281.3770 0149477 211.3889 308.6383 13.14174605650380
Epoch: 2025-10-18T11:39Z
TLE epoch observation values (Epoch: 2025-10-18T11:39:53.157Z)
Latitude
21.02201°
Longitude
-97.09764°
Altitude
1,139.728 km
Speed
7.318 km/s
True Right ascension
07h 00m 21s
True Declination
20° 54' 47"
Sunlit
Object was in daylight at epoch
Visualization orbit readout
Latitude
Unknown
Longitude
Unknown
Altitude
Unknown
Speed
Unknown
Apparent Right ascension
Unknown
Apparent Declination
Unknown
Sunlit
N/A
Visualization observer readout
Local Sidereal Time
11:08:45
Azimuth
Unknown
Elevation
Unknown
Doppler factor
Unknown
Orbital elements
Apogee altitude
1,317.739 km
Perigee altitude
1,091.056 km
Semi-major axis
7,582.534 km
Eccentricity
0.01495
Inclination
99.6137°
RAAN
281.377°
Arg. of periapsis
211.3889°
True anomaly
307.2847°
Mean anomaly
308.6383°
Eccentric anomaly
307.96308°
Mean motion
3.28717 °/min
Orbital period
109.52 mins
BSTAR
0.00013949
Loading maneuver chart data...
Computing Atmospheric mass density...

Documentation

Showing up to 5 results
|